Location: Tucson
(32.2217°N, 110.9265°W)
Time: 02:04:15
(UTC-07:00)

Envisat - Visible Passes

Search period start: 24 March 2019 00:00
Search period end: 03 April 2019 00:00
Orbit: 764 x 766 km, 98.2° (Epoch: 24 March)

Date Brightness Start Highest point End Pass type
(mag) Time Alt. Az. Time Alt. Az. Time Alt. Az.
24 Mar 5.9 20:24:39 10° SW 20:27:17 14° W 20:29:56 10° WNW visible
25 Mar 4.7 19:45:44 10° SSW 19:50:19 35° W 19:54:56 10° NNW visible
26 Mar 3.1 19:08:28 10° SSE 19:13:31 86° WSW 19:18:37 10° NNW visible
27 Mar 5.7 20:12:30 10° SW 20:15:59 19° W 20:19:30 10° NW visible
28 Mar 4.2 19:34:15 10° S 19:39:04 45° W 19:43:56 10° NNW visible
30 Mar 5.3 20:00:39 10° SSW 20:04:42 24° W 20:08:47 10° NW visible
31 Mar 3.7 19:22:51 10° S 19:27:50 60° W 19:32:51 10° NNW visible
01 Apr 6.0 20:28:16 10° WSW 20:30:25 13° W 20:32:35 10° WNW visible
02 Apr 4.9 19:48:58 10° SSW 19:53:26 31° W 19:57:55 10° NW visible
